sat.trackr.live / text

‹ back to catalog

COSMOS 2490 (RODNIK-S 9)

NORAD 39485 · 2013-076C

PAYLOAD ACTIVE UNKNOWN

§ Identity

Operator
Country
CIS
Launch date
2013-12-25
Launch site
PLMSC
Launch vehicle
Mass (kg)
RCS (m²)
1.67

External: N2YO · Heavens-Above · Gunter

§ Orbital elements

Epoch: 2026-09-20T05:07:16.400064Z

Period
115.86 min
Inclination
82.4789°
Eccentricity
0.0020592
Mean motion
12.42880917 rev/d
Perigee alt
1,478.2 km
Apogee alt
1,510.6 km
Semi-major
7,872.6 km
B*
2.4424e-4
RAAN
108.9258°
Arg perigee
265.7615°
Mean anomaly
94.1112°
Rev number
57,768

§ Raw data

COSMOS 2490 (RODNIK-S 9)1 39485U 13076C   26263.21338426  .00000044  00000+0  24424-3 0  99902 39485  82.4789 108.9258 0020592 265.7615  94.1112 12.42880917577685

JSON: /api/v1/satellites/39485 · /tle

For live sub-satellite position, see the globe view (requires WebGL).

§ Visibility from observer

Set your observer location to see the next 7 days of passes ≥ 10°. The values pass through the URL so the page stays shareable.

No JS? Fill the form by hand. The geolocation button needs JavaScript.

§ Radio — SatNOGS DB

ModeDescriptionDownlinkUplink
FM UHF Unknown 387.175 MHz
FM UHF Unknown 388.687 MHz

2 transmitters · refreshed weekly from db.satnogs.org